Regional Weather Roundup
Issued by NWS Little Rock, AR

Home | Current Version | Previous Version | Graphics & Text | Print | Product List | Glossary On
Versions: 1 2 3 4 5 6 7 8 9 10 11 12 13 14 15 16 17 18 19 20 21 22 23 24 25 26 27 28
000
ASUS44 KLZK 310405
RWRLZK

WEATHER ROUNDUP FOR ARKANSAS
NATIONAL WEATHER SERVICE LITTLE ROCK AR
1100 PM CDT MON MAY 30 2016

NOTE: "FAIR" INDICATES FEW OR NO CLOUDS BELOW 12,000 FEET WITH NO
SIGNIFICANT WEATHER AND/OR OBSTRUCTIONS TO VISIBILITY.

ARZ001-003-010-029-310500-
NORTHWEST ARKANSAS

CITY           SKY/WX    TMP DP  RH WIND       PRES   REMARKS
FAYETTEVILLE   CLOUDY    65  65 100 CALM      29.98S
FORT SMITH     CLOUDY    71  66  84 NE5       29.95S
HARRISON       MOCLDY    65  64  97 SE7       30.03R
BENTONVILLE    CLOUDY    66  63  88 SE6       29.99S
ROGERS           N/A     66  65  96 E7        30.00R
SILOAM SPGS    CLOUDY    64  57  77 CALM      29.99S
HIGHFILL       CLOUDY    66  66 100 E3        29.99R
$$

ARZ004-005-016-310500-
NORTH CENTRAL ARKANSAS

CITY           SKY/WX    TMP DP  RH WIND       PRES   REMARKS
BATESVILLE     CLOUDY    66  64  94 SE9       30.03S
FLIPPIN        PTCLDY   N/A N/A N/A S3        29.98R
MTN HOME       CLOUDY    66  65  96 CALM      29.99S
$$

ARZ040-041-310500-
WEST CENTRAL ARKANSAS

CITY           SKY/WX    TMP DP  RH WIND       PRES   REMARKS
MENA           CLOUDY    70  68  94 CALM      29.99R
MOUNT IDA      MOCLDY    66  64  93 CALM      29.96S
$$

ARZ009-017-025-026-028-310500-
NORTHEAST ARKANSAS

CITY           SKY/WX    TMP DP  RH WIND       PRES   REMARKS
CORNING          N/A     72  68  88 NW5       29.99S
JONESBORO      CLOUDY    74  67  78 NW8       29.98R
NEWPORT        LGT RAIN  68  68 100 SW10      30.03F
WALNUT RIDGE   CLOUDY    70  64  83 N6        29.99S
BLYTHEVILLE    MOCLDY    76  68  76 E6        29.97F
$$

ARZ022-023-033-042-044-310500-
CENTRAL ARKANSAS

CITY           SKY/WX    TMP DP  RH WIND       PRES   REMARKS
LITTLE ROCK    CLOUDY    68  64  87 E5        29.99R
N LITTLE ROCK    N/A     65  64  95 E5        29.96R
SEARCY         LGT RAIN  68  66  93 E5        30.02S
HOT SPRINGS    CLEAR     65  63  93 E5        29.99R
RUSSELLVILLE   CLOUDY    69  63  81 VRB3      29.97S
CLINTON        FAIR      66  66 100 CALM      30.01F
$$

ARZ036-310500-
EAST ARKANSAS

CITY           SKY/WX    TMP DP  RH WIND       PRES   REMARKS
WEST MEMPHIS   CLOUDY    73  66  78 W10G21    29.98R
$$

ARZ050-053-066-070-073-310500-
SOUTHWEST ARKANSAS

CITY           SKY/WX    TMP DP  RH WIND       PRES   REMARKS
ARKADELPHIA    FAIR      66  66 100 NE3       29.97F
CAMDEN         CLEAR     66  64  94 N3        29.95F
TEXARKANA      CLOUDY    69  67  93 E3        29.96R THUNDER
EL DORADO      CLEAR     70  69  97 NE8       29.95F
DE QUEEN       RAIN      71  67  87 E8        29.94R
$$

ARZ056-057-069-310500-
SOUTHEAST ARKANSAS

CITY           SKY/WX    TMP DP  RH WIND       PRES   REMARKS
STUTTGART      CLOUDY    68  63  83 N6        29.98F
MONTICELLO     CLOUDY    69  65  86 CALM      29.96F

$$






USA.gov is the U.S. government's official web portal to all federal, state and local government web resources and services.